Powrót do katalogu

YAOGAN-43 02D

AktywnyMilitariaVLEO
NORAD 60948·PAYLOAD·🇨🇳 China

Wystrzelony Sep 3, 2024 z Xichang Satellite Launch Center

Loading…

Następne Przeloty (najbliższe 24 godziny)

TLE

ŚwieżeSource: Space-Track

Epoka: Sep 14, 2026, 17:28 UTC

1 60948U 24156D   26257.72782554  .00001007  00000-0  43340-4 0  9993
2 60948  34.9939 354.7840 0003551 322.1557  37.8907 15.22982788113108

Śledź YAOGAN-43 02D w czasie rzeczywistym z AllMySat

Download on the App Store